Weather History for Atlantic City, NJ

Change the Weather History Date:

Sunday, January 6, 2013

  Actual Average Record
Temperature  
Mean Temperature 40 °F 33 °F  
Max Temperature 50 °F 42 °F 72 °F (2007)
Min Temperature 29 °F 25 °F 4 °F (1981)
Degree Days  
Heating Degree Days 25 32  
Month to date heating degree days 183 190  
Since 1 July heating degree days 1827 1959  
Cooling Degree Days 0 0  
Month to date cooling degree days 0 0  
Year to date cooling degree days 0 0  
Moisture  
Dew Point 26 °F    
Average Humidity 60    
Maximum Humidity 85    
Minimum Humidity 34    
Precipitation  
Precipitation T in 0.11 in 2.47 in (1962)
Month to date precipitation T 0.64  
Year to date precipitation T 0.64  
Snow  
Snow T in 0.10 in 7.30 in (1979)
Month to date snowfall T 0.7  
Since 1 July snowfall 2.5 4.6  
Snow Depth 0.00 in    
Sea Level Pressure  
Sea Level Pressure 30.12 in    
Wind  
Wind Speed 5 mph (WSW)    
Max Wind Speed 14 mph    
Max Gust Speed 20 mph    
Visibility 10 miles    
Events      
T = Trace of Precipitation, MM = Missing Value Source: NWS Daily Summary

Daily Weather History Graph

Daily Weather History Graph

Search for Another Location

Airport:

Trip Planner

Search our weather history database for the weather conditions in past years. The results will help you decide how hot, cold, wet, or windy it might be!

Date:

Astronomy

Jan. 06, 2013 Rise Set
Actual Time 7:18 AM EST 4:50 PM EST
Civil Twilight 6:48 AM EST 5:19 PM EST
Nautical Twilight 6:15 AM EST 5:53 PM EST
Astronomical Twilight 5:42 AM EST 6:25 PM EST
Moon 1:30 AM EST (1/6) 12:15 PM EST (1/6)
Length of Visible Light 10h 31m
Length of Day
9h 31m
Waning Crescent, 33% of the Moon is Illuminated
Jan 6
Waning Crescent
Jan 11
New
Jan 18
First Quarter
Jan 26
Full
Feb 3
Last Quarter

Hourly Weather History & Observations

Time (EST) Temp. Windchill Dew Point Humidity Pressure Visibility Wind Dir Wind Speed Gust Speed Precip Events Conditions
12:54 AM 35.1 °F 32.2 °F 24.1 °F 64% 30.25 in 10.0 mi South 3.5 mph - N/A   Overcast
1:54 AM 34.0 °F - 27.0 °F 75% 30.25 in 10.0 mi Calm Calm - 0.00 in   Overcast
2:54 AM 35.1 °F - 28.9 °F 78% 30.23 in 10.0 mi Calm Calm - N/A   Overcast
3:54 AM 37.0 °F 33.3 °F 28.9 °F 73% 30.18 in 10.0 mi South 4.6 mph - N/A   Overcast
4:54 AM 35.1 °F 32.2 °F 28.9 °F 78% 30.16 in 10.0 mi North 3.5 mph - N/A   Overcast
5:54 AM 35.1 °F - 30.0 °F 82% 30.16 in 10.0 mi Calm Calm - N/A   Overcast
6:54 AM 33.1 °F - 28.0 °F 82% 30.14 in 10.0 mi Calm Calm - N/A   Scattered Clouds
7:54 AM 30.0 °F - 27.0 °F 88% 30.15 in 10.0 mi Calm Calm - N/A   Mostly Cloudy
8:54 AM 39.0 °F 34.8 °F 32.0 °F 76% 30.14 in 10.0 mi SW 5.8 mph - N/A   Clear
9:54 AM 42.1 °F 37.7 °F 30.9 °F 65% 30.15 in 10.0 mi WSW 6.9 mph - N/A   Clear
10:54 AM 44.1 °F 39.0 °F 28.0 °F 53% 30.12 in 10.0 mi West 9.2 mph - N/A   Clear
11:54 AM 46.9 °F - 23.0 °F 39% 30.08 in 10.0 mi West 10.4 mph - N/A   Clear
12:54 PM 48.9 °F - 21.9 °F 35% 30.05 in 10.0 mi West 8.1 mph - N/A   Clear
1:54 PM 48.9 °F - 23.0 °F 36% 30.03 in 10.0 mi WNW 9.2 mph - N/A   Clear
2:54 PM 50.0 °F - 25.0 °F 38% 30.02 in 10.0 mi West 10.4 mph - N/A   Clear
3:54 PM 48.0 °F - 23.0 °F 37% 30.03 in 10.0 mi West 9.2 mph - N/A   Clear
4:54 PM 44.1 °F 40.1 °F 24.1 °F 45% 30.04 in 10.0 mi West 6.9 mph - N/A   Clear
5:54 PM 42.1 °F 40.2 °F 24.1 °F 49% 30.04 in 10.0 mi West 3.5 mph - N/A   Clear
6:54 PM 33.1 °F - 23.0 °F 66% 30.06 in 10.0 mi Calm Calm - N/A   Clear
7:54 PM 34.0 °F 31.0 °F 24.1 °F 67% 30.07 in 10.0 mi SSW 3.5 mph - N/A   Clear
8:54 PM 37.0 °F 34.5 °F 26.1 °F 65% 30.07 in 10.0 mi SW 3.5 mph - N/A   Overcast
9:54 PM 39.0 °F 36.8 °F 28.0 °F 65% 30.08 in 10.0 mi SW 3.5 mph - N/A   Overcast
10:54 PM 39.9 °F 36.7 °F 28.9 °F 65% 30.09 in 10.0 mi WSW 4.6 mph - N/A   Overcast
11:54 PM 39.9 °F 35.8 °F 28.9 °F 65% 30.10 in 10.0 mi West 5.8 mph - N/A   Overcast